TimeMST,TemperatureF,Dew PointF,Humidity,Sea Level PressureIn,VisibilityMPH,Wind Direction,Wind SpeedMPH,Gust SpeedMPH,PrecipitationIn,Events,Conditions,WindDirDegrees,DateUTC
12:57 AM,43.0,26.1,51,30.00,10.0,Calm,Calm,-,N/A,,Clear,0,2012-10-06 07:57:00
1:57 AM,42.1,27.0,55,30.00,10.0,Calm,Calm,-,N/A,,Clear,0,2012-10-06 08:57:00
2:57 AM,41.0,26.1,55,29.98,10.0,Calm,Calm,-,N/A,,Clear,0,2012-10-06 09:57:00
3:57 AM,42.1,27.0,55,29.98,10.0,Calm,Calm,-,N/A,,Clear,0,2012-10-06 10:57:00
4:57 AM,41.0,27.0,57,29.99,10.0,Calm,Calm,-,N/A,,Clear,0,2012-10-06 11:57:00
5:57 AM,39.0,28.0,65,30.01,10.0,Calm,Calm,-,N/A,,Clear,0,2012-10-06 12:57:00
6:57 AM,39.0,28.0,65,30.03,10.0,Calm,Calm,-,N/A,,Clear,0,2012-10-06 13:57:00
7:57 AM,44.1,30.0,58,30.04,10.0,Calm,Calm,-,N/A,,Clear,0,2012-10-06 14:57:00
8:57 AM,55.0,33.1,43,30.01,10.0,Calm,Calm,-,N/A,,Clear,0,2012-10-06 15:57:00
9:57 AM,62.1,30.9,31,29.99,10.0,SSW,9.2,-,N/A,,Clear,210,2012-10-06 16:57:00
10:57 AM,64.9,28.9,26,29.97,10.0,SW,8.1,-,N/A,,Clear,220,2012-10-06 17:57:00
11:57 AM,66.9,28.9,24,29.95,10.0,WSW,15.0,18.4,N/A,,Clear,240,2012-10-06 18:57:00
12:32 PM,68.0,28.4,23,30.17,10.0,SW,13.8,21.9,N/A,,Clear,220,2012-10-06 19:32:00
12:57 PM,69.1,28.9,22,29.93,10.0,SW,17.3,23.0,N/A,,Clear,220,2012-10-06 19:57:00
1:57 PM,68.0,27.0,21,29.92,10.0,SSW,15.0,23.0,N/A,,Clear,200,2012-10-06 20:57:00
2:57 PM,68.0,26.1,21,29.91,10.0,South,18.4,26.5,N/A,,Clear,190,2012-10-06 21:57:00
3:57 PM,68.0,26.1,21,29.91,10.0,SW,16.1,25.3,N/A,,Clear,220,2012-10-06 22:57:00
6:57 PM,57.9,30.9,36,29.96,10.0,SW,10.4,-,N/A,,Clear,220,2012-10-07 01:57:00
7:57 PM,55.9,30.9,39,29.97,10.0,WSW,6.9,-,N/A,,Clear,240,2012-10-07 02:57:00
8:57 PM,48.0,30.0,50,29.96,10.0,NNE,3.5,-,N/A,,Clear,30,2012-10-07 03:57:00
9:57 PM,43.0,28.9,58,29.96,10.0,Calm,Calm,-,N/A,,Clear,0,2012-10-07 04:57:00
10:57 PM,39.9,28.0,63,29.96,10.0,Calm,Calm,-,N/A,,Clear,0,2012-10-07 05:57:00
11:57 PM,37.0,26.1,65,29.96,10.0,Calm,Calm,-,N/A,,Clear,0,2012-10-07 06:57:00